Precipitable_Water
1.21 1.35 1.41 1.35 1.41 1.44 1.46 1.51 1.50 1.50 1.44 1.46 1.48 1.33 1.31 1.35 1.32 1.33 1.23 1.22 1.13 1.23
1.10 1.25 1.39 1.36 1.38 1.59 1.55 1.55 1.53 1.60 1.55 1.47 1.38 1.35 1.31 1.36 1.29 1.33 1.37 1.25 1.17 1.14
1.13 1.26 1.31 1.39 1.43 1.49 1.67 1.66 1.65 1.60 1.57 1.56 1.46 1.31 1.27 1.34 1.33 1.33 1.38 1.37 1.26 1.26
1.23 1.26 1.31 1.28 1.39 1.44 1.62 1.59 1.58 1.58 1.56 1.55 1.52 1.36 1.28 1.33 1.33 1.33 1.31 1.36 1.33 1.29
1.25 1.32 1.28 1.36 1.43 1.44 1.39 1.55 1.59 1.60 1.55 1.52 1.49 1.36 1.23 1.24 1.31 1.26 1.33 1.33 1.30 1.30
1.21 1.28 1.30 1.37 1.52 1.50 1.43 1.40 1.49 1.54 1.48 1.45 1.44 1.39 1.30 1.23 1.28 1.24 1.33 1.34 1.29 1.28
1.19 1.21 1.27 1.44 1.46 1.50 1.52 1.48 1.47 1.44 1.42 1.42 1.45 1.47 1.43 1.29 1.32 1.26 1.34 1.41 1.37 1.34
1.22 1.23 1.28 1.37 1.50 1.49 1.52 1.50 1.51 1.48 1.50 1.53 1.52 1.54 1.53 1.38 1.33 1.32 1.34 1.44 1.45 1.41
1.21 1.26 1.22 1.30 1.43 1.51 1.51 1.57 1.62 1.61 1.63 1.64 1.69 1.73 1.69 1.50 1.36 1.37 1.40 1.41 1.44 1.49
1.36 1.24 1.26 1.27 1.34 1.46 1.52 1.65 1.68 1.76 1.81 1.85 1.85 1.85 1.76 1.62 1.46 1.43 1.47 1.50 1.45 1.53
1.43 1.38 1.41 1.43 1.38 1.50 1.63 1.70 1.81 1.90 1.92 1.85 1.84 1.76 1.67 1.62 1.54 1.50 1.51 1.56 1.55 1.58
1.42 1.46 1.50 1.54 1.63 1.72 1.82 1.92 1.96 1.96 1.79 1.69 1.66 1.67 1.62 1.53 1.47 1.49 1.54 1.59 1.61 1.65
1.48 1.50 1.53 1.66 1.76 1.89 1.99 2.00 1.99 1.76 1.63 1.67 1.62 1.63 1.59 1.55 1.53 1.51 1.55 1.60 1.55 1.53
1.60 1.63 1.70 1.76 1.88 1.98 2.00 2.00 1.77 1.49 1.56 1.54 1.52 1.61 1.64 1.66 1.63 1.56 1.53 1.45 1.47 1.53
Wind_Speed
20 17 16 15 12 12 10 8 7 6 6 6 7 8 9 11 13 14 14 10 9 10
22 21 18 17 16 13 11 10 9 8 7 8 9 10 10 12 13 14 13 11 10 11
22 22 20 19 18 17 13 11 10 10 10 10 10 11 11 12 14 14 13 13 12 12
22 22 22 21 19 17 16 13 12 11 11 11 11 12 13 14 15 15 15 15 14 14
23 23 23 22 21 20 18 16 14 14 13 13 14 14 15 16 17 17 17 16 16 15
24 25 25 24 22 21 20 19 18 17 17 17 17 17 18 19 19 18 18 18 18 18
25 27 26 25 24 23 22 21 21 21 20 20 20 20 20 20 20 20 20 20 20 20
26 27 28 27 26 26 24 23 23 22 22 22 22 22 22 22 22 22 23 23 23 23
27 27 29 29 28 27 26 25 23 23 23 23 24 23 23 24 24 24 24 24 24 25
27 28 29 29 29 28 27 25 24 24 24 24 24 24 24 25 25 25 25 26 26 26
27 28 28 29 29 28 27 26 25 25 25 24 24 24 24 26 26 27 28 28 28 28
30 28 28 29 28 27 26 25 25 25 23 23 23 24 25 25 28 29 30 30 28 28
32 30 29 29 27 26 26 25 24 24 23 23 24 25 26 27 28 30 29 29 28 29
33 32 30 29 28 27 26 25 25 24 24 24 24 25 26 27 28 27 26 26 28 29
Wind_Direction
221 222 223 218 212 210 212 221 229 243 265 283 302 313 317 331 337 340 340 317 304 294
221 221 221 217 215 215 224 232 237 249 260 278 293 302 306 316 327 330 336 330 311 298
219 219 219 216 216 221 227 237 241 248 259 276 290 298 301 309 316 321 322 323 315 304
218 218 217 218 221 225 229 237 245 248 258 272 285 291 298 302 307 308 312 310 310 304
219 219 218 220 226 229 231 237 246 251 261 271 282 288 293 297 302 300 300 303 302 299
222 221 221 224 228 231 235 240 247 254 263 272 277 284 289 294 295 298 295 296 295 294
225 223 225 227 230 232 237 243 250 257 264 270 276 281 284 290 294 293 294 293 292 293
228 227 228 230 233 236 241 247 253 258 265 271 274 279 281 284 291 291 291 290 287 289
230 230 230 232 235 238 244 248 253 258 264 270 275 276 280 283 287 287 291 289 286 288
232 232 232 233 236 239 242 248 254 258 264 270 272 274 279 281 286 287 287 289 287 287
233 233 233 235 236 238 243 249 254 258 263 268 274 277 280 284 284 287 287 286 287 285
233 234 233 234 235 238 243 249 255 258 262 266 273 276 281 286 287 287 288 287 285 286
233 233 233 234 235 239 244 249 254 257 259 267 275 279 280 287 291 290 286 285 283 286
233 233 233 233 236 241 245 251 252 253 259 271 280 281 284 287 292 290 286 285 287 287